Lapse_Rate
8.2 8.6 8.8 9.0 7.1 9.1 9.2 9.4 9.3 9.4 8.8 8.9 9.0 9.2 9.0 9.1 7.1 6.7 6.6 7.0 7.0 7.2 7.0 7.1 8.4 8.2 8.5 8.6 8.9 9.0 8.7 8.5 9.1 8.4 8.3 8.9 9.3 9.4 9.3 9.5 9.6 9.4 9.2
8.2 8.1 8.0 8.1 7.3 8.2 8.7 9.3 9.3 9.3 9.2 8.6 8.6 9.2 9.2 8.4 9.0 5.9 7.1 6.6 7.1 7.0 6.9 7.1 7.5 7.6 8.3 8.3 8.3 8.3 8.0 8.1 8.1 8.5 8.3 7.9 8.4 9.0 9.2 9.3 9.3 9.4 9.2
7.6 7.1 6.3 6.8 7.4 8.3 8.7 9.1 9.2 9.3 9.3 9.1 8.9 8.9 8.9 8.7 7.2 8.0 6.1 6.4 6.9 6.6 6.4 6.9 6.5 6.0 7.0 7.3 7.6 7.1 7.3 6.9 7.8 8.4 8.1 7.4 7.2 7.7 8.1 8.4 9.1 9.2 9.2
7.1 7.0 6.5 5.2 5.9 6.4 8.7 9.0 9.1 9.3 9.5 9.3 8.9 8.8 8.7 8.1 8.1 7.3 7.4 6.3 6.5 6.6 6.2 5.6 6.3 5.3 5.1 6.9 7.7 7.0 6.1 6.8 6.6 7.3 7.7 8.0 7.9 7.4 7.3 8.1 8.3 9.1 9.2
7.3 7.0 7.0 6.2 6.2 5.0 4.6 8.6 9.0 9.3 9.3 9.1 9.2 8.8 8.8 8.9 7.7 7.4 6.4 6.9 7.2 6.8 6.6 6.5 5.9 5.8 5.6 5.5 6.7 7.0 6.1 5.7 7.2 5.9 6.2 7.0 7.3 7.4 7.7 7.3 7.3 8.4 8.6
7.3 6.9 6.3 5.3 5.1 4.7 4.5 7.5 7.7 8.7 9.1 9.0 9.0 8.7 8.1 8.6 7.7 5.2 5.8 5.3 6.1 5.8 6.1 6.0 6.0 5.7 5.1 5.5 5.3 5.8 5.4 5.7 6.9 7.6 7.0 6.9 6.8 6.7 7.0 7.1 7.5 7.4 8.0
7.4 6.4 5.9 5.5 4.7 4.4 5.3 6.8 8.2 8.3 8.9 8.9 8.3 8.4 8.1 8.0 8.0 6.7 5.4 6.0 5.6 5.4 5.5 5.3 5.1 5.2 5.4 5.7 5.9 5.5 5.5 5.8 5.7 8.0 7.8 7.3 7.3 7.0 7.7 7.4 7.7 7.4 7.2
6.8 6.3 5.4 4.9 5.0 4.0 4.6 4.4 7.4 8.4 8.2 8.7 8.3 8.2 7.4 7.5 7.8 8.0 6.3 5.2 5.8 5.2 5.6 5.4 5.3 5.3 4.9 5.4 5.5 5.0 5.4 5.4 5.7 5.8 7.1 7.1 6.6 6.3 7.0 6.6 6.7 6.3 6.7
7.0 6.7 4.9 4.3 4.2 3.1 3.7 3.4 4.4 7.1 6.2 6.8 7.7 7.7 8.0 7.7 7.5 7.1 6.7 5.8 5.4 5.8 5.6 5.4 4.7 4.8 4.6 4.1 4.2 4.1 4.2 4.5 5.0 5.8 5.4 6.5 6.5 6.4 6.6 6.3 5.9 6.7 6.8
7.3 7.3 6.8 5.6 3.3 2.6 2.8 3.1 3.5 5.1 5.9 6.0 6.3 6.3 6.1 6.6 7.0 7.0 6.7 6.5 5.5 5.5 5.5 5.5 5.4 4.9 4.5 4.5 4.1 4.3 4.4 4.7 4.7 5.3 4.8 4.9 5.8 5.8 6.1 6.7 6.7 5.6 5.7
7.6 8.0 8.2 6.6 4.3 3.0 2.4 3.1 3.4 4.3 5.0 6.0 5.3 5.8 6.1 5.7 5.3 5.7 6.1 5.3 4.4 4.2 4.7 4.3 4.0 3.9 3.9 3.5 3.4 3.1 3.3 3.6 4.0 4.2 5.0 5.3 5.7 5.8 6.4 6.7 6.5 4.6 3.8
8.0 8.1 8.2 6.8 5.8 4.5 2.8 2.6 3.0 4.4 4.5 4.6 4.5 4.7 4.5 4.7 4.6 4.8 5.6 6.1 6.1 5.2 4.5 4.3 4.2 3.5 3.5 3.6 4.0 4.2 4.4 4.4 4.6 5.2 6.1 6.2 6.0 5.7 6.1 5.6 5.6 5.4 4.5
8.0 8.1 8.2 8.1 7.4 7.3 5.5 3.1 2.6 3.0 3.1 3.8 3.8 3.5 3.5 3.8 3.7 3.8 4.0 4.3 4.5 3.9 4.1 4.4 4.4 4.1 3.9 3.7 3.9 4.1 4.3 4.7 5.1 5.4 5.5 5.9 5.6 5.6 5.4 5.4 4.9 4.6 3.8
7.8 8.0 8.1 8.3 8.4 8.0 7.4 6.3 4.4 3.9 3.8 3.5 4.0 3.8 3.6 3.6 3.6 3.2 3.2 3.3 3.7 3.6 3.7 3.7 3.8 3.9 3.8 3.8 3.7 4.2 4.4 4.4 4.6 4.8 5.2 5.5 5.4 5.7 5.0 4.6 4.5 4.7 4.4
7.7 7.9 8.0 8.2 8.4 7.6 7.7 7.5 6.5 6.3 5.6 4.6 3.6 3.9 3.9 3.6 3.5 2.8 2.7 2.9 2.8 2.9 3.2 3.5 3.4 3.6 3.3 2.6 4.2 4.3 4.8 4.7 4.5 4.4 4.4 4.2 3.8 3.3 4.2 4.7 4.8 4.4 4.5
7.7 7.9 7.9 7.7 7.7 7.0 6.6 6.8 7.0 6.4 6.3 6.2 5.7 4.7 4.5 4.5 4.1 3.5 3.4 3.4 3.0 2.7 2.8 2.9 2.7 2.2 1.4 1.1 1.5 2.1 3.9 4.1 4.8 4.8 4.0 3.4 2.2 2.4 2.5 2.4 2.3 2.8 4.1
7.7 7.8 7.7 7.0 6.2 5.6 5.6 5.8 6.3 6.7 6.0 5.4 5.3 5.7 5.8 5.7 5.3 5.6 4.7 4.4 4.7 4.8 3.8 3.5 3.6 3.0 2.0 1.5 1.5 1.6 2.2 2.6 2.7 2.8 2.8 2.6 2.4 1.9 2.5 2.5 2.3 2.0 2.2
7.9 8.0 7.5 7.2 6.3 6.0 5.6 6.0 5.9 6.0 5.5 5.2 5.1 5.1 5.4 5.1 5.1 4.7 4.1 3.5 4.0 4.2 4.1 3.9 3.9 3.7 1.9 1.2 1.6 1.8 3.4 3.6 3.1 2.5 2.5 2.2 2.2 1.9 1.7 1.7 1.2 0.9 0.7
8.3 8.4 8.1 6.9 6.5 6.5 6.2 6.5 6.4 5.9 5.2 4.5 4.2 4.7 4.8 4.6 4.5 3.9 3.4 3.3 0.9 2.0 3.1 3.8 3.9 4.4 2.8 1.1 1.4 2.8 4.6 4.8 5.1 4.1 3.5 3.0 2.8 2.6 2.6 1.8 1.3 0.7 0.4
8.4 8.3 7.9 7.7 7.2 7.2 6.5 7.0 6.7 6.3 5.0 4.5 4.7 4.8 4.6 4.5 4.0 3.7 3.6 3.8 3.9 4.0 4.2 4.9 5.1 3.5 5.0 1.1 1.3 1.7 4.1 4.5 4.5 5.1 4.7 3.4 2.7 3.1 3.0 2.6 2.0 1.0 0.6
8.4 8.0 7.2 7.1 8.1 6.9 6.5 7.1 6.5 5.2 4.3 4.6 4.8 4.8 4.6 4.3 4.5 4.4 4.5 5.3 6.2 6.5 6.1 6.7 6.4 5.7 3.9 3.8 2.2 1.6 3.6 3.6 3.6 4.4 5.2 5.4 3.6 3.2 3.0 2.9 1.9 2.2 1.6
7.7 7.1 7.4 7.2 6.9 6.2 6.2 6.7 6.5 4.8 4.8 5.2 5.6 5.5 5.3 4.9 5.0 5.2 5.2 5.5 5.7 6.2 5.7 5.5 5.4 5.5 5.3 4.0 4.2 4.0 3.7 3.9 4.5 5.5 6.1 6.2 4.6 4.6 3.8 3.6 3.5 3.4 3.1
7.2 7.1 6.8 7.3 6.9 6.3 6.1 6.6 6.6 5.4 5.3 5.9 6.1 6.2 6.3 6.1 5.8 5.4 5.5 6.5 6.1 5.9 5.7 5.8 5.5 5.4 5.3 5.5 4.6 3.7 3.7 4.2 4.3 4.9 4.4 4.4 4.3 4.1 4.3 4.3 4.1 4.1 2.4
7.2 7.4 7.5 8.0 7.8 6.8 6.4 7.0 7.1 6.0 6.1 6.5 6.3 6.3 6.4 6.4 6.3 6.6 6.0 6.6 6.6 6.5 6.9 6.6 6.3 5.8 5.1 4.9 2.9 3.1 3.2 3.6 3.7 3.4 3.2 3.9 4.1 4.0 4.2 4.3 4.4 4.1 2.7
7.1 7.0 6.7 7.1 7.8 8.7 8.0 7.3 6.8 6.5 6.6 6.8 6.4 6.5 6.4 6.1 6.3 6.1 5.5 5.6 5.9 4.1 4.6 5.4 4.6 4.1 3.7 3.9 2.8 2.6 2.8 2.9 3.1 3.3 3.7 3.6 3.3 3.6 3.5 3.3 3.5 4.1 2.8
6.6 6.5 6.2 6.6 7.2 8.0 8.5 7.9 6.9 6.6 7.0 6.8 6.9 7.0 6.9 7.2 7.0 6.5 6.9 3.2 3.4 2.9 2.7 3.2 3.0 3.7 4.0 3.7 3.4 3.3 3.5 3.6 4.1 3.9 3.7 4.5 5.4 6.0 5.5 5.7 5.5 4.7 4.6
Wind_Speed
21 22 23 21 23 17 19 18 17 17 12 11 11 11 11 10 9 11 16 16 18 21 16 12 12 11 11 11 11 10 11 7 7 5 4 5 7 8 6 7 7 9 12
21 23 24 22 19 11 17 18 18 17 15 11 12 11 10 11 9 8 15 14 18 19 15 13 13 13 10 13 13 13 8 7 8 7 6 4 6 8 8 7 8 9 10
20 21 22 22 20 8 9 16 16 16 16 16 11 10 9 9 10 10 10 14 18 17 15 17 14 14 11 10 12 12 13 10 8 10 5 3 4 6 7 10 8 8 7
20 17 18 20 18 18 8 12 14 15 14 14 12 16 11 12 10 12 10 11 17 18 18 18 15 14 12 11 12 11 11 10 10 8 8 8 2 4 3 6 8 9 9
16 17 16 18 18 16 16 9 12 14 14 14 13 12 14 11 10 10 13 15 16 17 19 17 15 13 11 12 12 12 12 10 9 10 9 8 4 5 2 3 5 6 7
17 15 16 16 15 15 15 10 9 12 13 13 14 16 16 14 11 9 11 9 11 11 15 17 15 13 12 12 12 14 14 10 10 8 9 8 7 7 4 4 4 6 6
16 17 17 16 15 16 15 7 10 12 15 15 16 16 17 16 15 14 10 14 9 9 12 14 14 11 13 13 12 13 12 12 10 10 7 7 7 5 4 6 6 3 2
15 17 17 15 14 15 15 14 11 12 12 13 15 15 18 12 12 15 9 9 9 10 12 13 13 13 13 12 10 9 10 12 9 12 9 7 7 5 6 4 3 2 3
14 17 18 17 17 16 14 13 12 8 9 12 11 14 15 16 13 14 13 11 11 9 13 15 15 13 14 13 12 9 10 9 10 11 10 8 6 6 5 4 5 7 7
15 15 14 15 17 16 15 16 16 8 7 7 9 8 8 13 10 12 12 11 8 9 11 13 15 13 14 14 14 10 12 12 8 6 7 5 5 5 7 9 10 6 9
13 15 14 15 14 16 16 16 18 14 2 6 4 4 10 9 8 6 8 8 8 8 10 10 9 9 11 10 10 8 7 5 7 7 6 8 8 6 9 10 11 6 5
12 13 12 14 15 15 16 17 18 15 15 12 11 11 9 8 6 5 3 6 8 8 7 8 10 10 9 9 9 9 8 13 13 13 13 13 8 11 12 9 10 8 7
10 12 13 12 12 15 14 14 16 18 16 15 14 14 12 10 9 7 4 4 5 6 5 6 9 9 10 9 9 9 7 8 9 7 8 9 8 8 6 7 6 6 4
8 9 10 11 12 12 13 13 13 13 14 14 14 14 12 11 9 9 8 9 7 8 7 5 4 6 6 4 5 6 6 5 5 6 7 7 9 10 8 6 8 7 6
6 7 8 9 10 11 12 13 12 11 10 11 12 12 11 10 11 12 11 11 10 9 9 8 8 7 7 5 1 4 5 6 6 5 5 5 6 9 8 6 9 10 10
5 5 6 7 8 10 10 10 11 11 11 11 10 8 9 9 9 9 9 9 9 9 9 8 8 8 5 10 10 5 1 3 4 4 5 6 9 9 13 13 13 6 6
4 4 5 5 6 7 8 9 9 9 9 10 10 10 9 9 9 9 9 9 9 8 8 7 7 8 8 11 10 7 4 4 3 4 4 4 3 5 5 6 8 8 9
5 4 3 3 4 5 6 6 7 7 8 9 9 8 8 8 8 9 10 10 7 8 8 7 7 7 8 11 10 7 4 3 1 1 1 1 3 2 2 3 3 3 4
6 3 2 3 3 3 4 4 5 6 7 8 9 9 9 9 9 9 9 7 7 6 7 6 7 6 8 10 10 8 4 3 3 3 3 3 4 5 4 3 4 5 3
7 6 4 3 4 2 4 4 4 5 6 7 7 7 7 8 8 7 6 5 4 4 3 4 5 5 6 10 11 10 4 5 4 5 4 2 4 7 5 4 4 5 4
10 8 7 6 4 2 3 2 3 4 4 4 5 6 7 7 6 5 5 4 5 5 5 5 6 8 7 9 14 14 6 6 5 5 5 3 5 7 8 8 4 5 2
8 9 8 7 6 4 3 3 1 2 3 3 4 5 6 4 4 5 4 5 6 5 6 7 6 6 7 9 10 10 11 10 6 6 5 6 10 9 10 8 11 11 7
9 9 9 8 7 6 6 5 2 1 1 1 2 3 3 4 5 5 5 4 5 5 5 5 4 4 4 4 10 13 14 12 8 6 8 12 12 11 9 10 12 11 4
11 10 10 10 9 9 8 7 5 4 3 2 1 1 2 3 4 3 3 4 5 5 4 4 4 5 5 5 7 7 7 10 8 9 8 11 12 12 10 9 7 5 5
10 10 11 10 10 9 9 8 7 7 6 4 3 2 1 2 3 4 4 4 5 4 3 4 4 4 5 5 10 9 7 8 9 12 7 6 5 5 5 4 5 5 4
10 10 11 10 10 9 9 9 8 8 7 5 4 2 1 1 2 3 3 4 1 5 5 3 3 4 6 7 10 11 13 13 14 7 5 6 5 6 6 6 6 4 7
Wind_Direction
315 311 311 304 293 256 247 235 228 222 215 213 206 212 212 227 199 209 204 194 183 181 188 186 187 180 189 193 195 195 197 203 206 198 203 228 223 228 222 229 232 217 215
322 323 324 320 294 270 234 230 226 216 213 213 205 206 214 205 226 201 204 190 184 181 187 184 187 189 190 192 195 190 192 199 207 195 192 214 223 225 228 224 227 233 210
328 327 325 329 328 307 247 226 223 219 215 210 210 209 204 218 209 215 204 191 186 183 186 187 187 188 195 197 196 190 185 195 200 196 189 201 225 199 204 217 228 229 229
329 324 327 331 331 334 247 250 225 221 220 212 210 209 208 205 211 211 208 198 189 185 189 188 194 186 193 195 199 195 191 186 192 200 230 256 350 236 183 196 216 234 228
329 324 330 333 332 332 329 244 230 220 216 215 216 217 216 209 204 203 203 199 197 189 192 187 193 190 192 198 196 193 189 196 198 197 202 222 237 275 294 241 191 210 228
332 332 336 335 333 333 318 271 235 227 213 217 220 224 226 218 202 186 190 198 188 191 191 194 194 191 190 191 194 194 196 204 208 197 203 203 205 220 221 250 259 210 213
341 337 341 342 339 339 339 291 228 226 227 212 213 218 226 226 216 195 189 188 192 190 190 187 191 190 191 192 192 196 191 199 194 222 208 209 216 221 230 225 249 245 166
347 344 343 343 345 342 346 343 308 218 230 219 212 218 214 219 214 205 183 175 198 194 190 186 189 193 192 186 188 195 192 192 202 199 215 215 216 223 224 209 208 215 244
348 344 343 351 349 348 347 336 327 253 224 218 225 225 207 203 202 205 205 197 186 198 197 197 192 191 185 179 173 181 181 195 204 208 200 223 217 221 229 211 217 225 250
357 353 349 355 354 356 350 355 345 320 214 216 216 240 183 201 200 204 193 193 178 188 196 199 195 187 188 189 183 188 182 185 191 198 199 220 239 264 255 260 247 227 239
1 360 357 6 1 360 358 357 1 351 357 230 262 206 135 132 149 167 162 153 144 165 179 176 165 177 182 168 172 176 168 185 178 203 217 236 248 249 252 250 248 224 209
360 7 4 12 4 3 358 1 2 8 22 53 54 60 67 71 83 95 132 167 170 172 169 164 166 167 167 167 165 176 188 205 216 222 225 235 237 252 252 249 238 227 232
4 11 9 15 9 11 11 8 4 9 16 33 40 46 44 53 55 64 80 107 156 150 151 183 176 176 178 175 190 186 200 222 232 214 205 219 209 226 220 218 225 229 211
358 13 13 16 13 13 16 15 15 16 15 24 29 38 36 45 51 53 53 64 64 87 86 80 104 145 142 141 155 164 178 184 197 204 212 208 211 221 207 211 221 223 216
340 5 9 12 14 19 19 20 22 20 23 35 27 29 26 34 44 48 49 53 54 51 56 58 53 53 58 35 110 181 203 211 200 191 193 198 206 216 217 212 225 224 233
305 338 354 4 16 13 11 17 25 28 30 38 47 37 35 38 45 43 50 58 57 54 60 63 66 67 53 54 52 38 147 171 189 208 220 213 218 234 234 234 245 258 260
246 297 328 349 1 13 6 15 16 25 43 42 39 40 45 44 43 54 56 52 62 67 63 64 67 67 52 31 46 52 57 51 24 2 6 2 356 337 330 305 283 265 240
228 235 271 311 350 355 12 10 26 34 39 49 47 47 50 50 50 52 51 50 45 52 57 55 57 74 49 31 24 6 71 72 117 139 180 255 285 256 248 255 278 278 298
225 240 256 286 315 342 1 4 30 43 47 45 44 38 43 50 47 50 50 47 49 31 45 44 52 41 64 35 26 3 14 355 349 43 339 341 316 309 281 222 231 253 245
207 213 231 257 276 323 334 349 26 45 49 37 39 48 50 54 58 53 49 51 56 69 78 76 77 60 60 52 35 19 11 5 359 352 0 192 296 317 304 253 248 247 235
203 202 205 226 243 270 299 319 1 35 24 34 38 38 49 45 43 58 52 48 56 60 52 54 56 54 51 42 33 23 5 9 350 331 330 341 24 337 308 273 258 256 188
204 202 210 214 210 208 239 258 301 30 4 9 33 34 38 43 35 46 40 36 34 39 35 29 33 34 16 39 34 34 26 2 347 334 334 333 354 327 296 289 272 264 235
207 210 218 216 210 212 216 227 202 204 321 321 57 47 49 39 42 37 23 24 33 30 30 25 8 6 4 8 21 7 358 349 341 330 326 315 311 303 295 279 268 263 201
214 209 214 222 220 216 213 227 191 191 204 194 156 92 62 11 30 23 34 358 18 9 5 4 354 356 354 4 13 347 335 333 334 331 323 314 313 312 297 298 287 262 214
211 207 212 221 225 216 216 214 199 192 203 201 196 205 60 35 12 20 16 1 41 29 346 346 348 337 326 343 339 332 331 325 318 316 308 303 289 297 298 276 266 264 231
206 206 209 211 217 219 214 215 203 203 209 207 202 199 186 303 342 342 332 129 73 13 348 346 325 314 296 313 320 315 312 319 320 309 301 306 304 296 297 289 286 260 248